星链-35407(STARLINK-35407)

导读

STARLINK-35407是美国于2025年11月6日发射的卫星,隶属于SpaceX星链星座,星链星座旨在为全球提供高速卫星互联网服务。该卫星延续了星链星座批量部署的模式,依托成熟箭体技术入轨,进一步扩充了星链低轨卫星网络规模,提升星座全球覆盖密度与服务能力,支撑星链通信服务的持续扩容升级。

基本信息
目录编号:
66334
目录名称:
STARLINK-35407
国际标识:
2025-253R
轨道中心:
EARTH
卫星名称:
星链-35407
卫星全名:
星链-35407(STARLINK-35407)
卫星状态:
在轨 (已飞行302 天)
发射日期:
2025-11-06 UTC
国别 :
美国 (US)
星等 :
--
轨道信息
数据来源 国际轨道数据
星历时间: 2026-09-04T12:04:56+0800
15小时前
查看轨道信息
半长轴: 6861.174km
偏心率: 0.0001521
轨道倾角: 43.003°
近地点辐角 273.512°
升交点赤经 284.298°
平近点角 86.556°
近地点: 481.993km
远地点: 484.081km
周期: 94.266分钟
每日圈数: 15.275841
详细信息
固有亮度:
5
最大亮度:
2.5
卫星平台:
Starlink V1.0
覆盖范围:
全球
运营商:
太空探索技术公司
运营商所在国:
美国
制造商(研发单位):
太空探索技术公司
制造商所在国:
美国
使用方式:
暂无
卫星简介
Starlink 计划是 SpaceX 推出的全球卫星互联网项目,通过发射低轨道卫星,为全球尤其是偏远地区提供高速、低延迟的互联网服务。自 2019 年起,Starlink 已部署数千颗卫星,旨在缩小全球数字鸿沟,推动互联网普及。该项目还为军事、航空等行业提供通信支持,带来广泛经济效益。
2D轨道图
3D轨道图
轨道高度分析图
轨道倾角分析图
轨道综合分析图
查看轨道综合分析图
交会数据列表
事件ID 空间交会对象 最接近时刻(TCA) 交会距离 交会风险概率(CRP) 交会风险指数(CRI) 操作
CDM_260906-220706-383606-633421
2026-09-06T
22:07:15+0000
0.215 km
中距离
6.429005E-4 高风险 0.91
CDM_260903-142606-356506-633421
2026-09-03T
14:26:49+0000
0.709 km
远距离
4.012909E-5 中风险 0.67
CDM_260902-233206-356506-633421
2026-09-02T
23:32:22+0000
0.737 km
远距离
3.558392E-5 中风险 0.66
CDM_260903-125206-356506-633421
2026-09-03T
12:52:40+0000
1.188 km
极远距离
7.08987E-6 低风险 0.52
CDM_260906-234106-383606-633421
2026-09-06T
23:41:24+0000
1.695 km
极远距离
3.423873E-6 低风险 0.46
CDM_260906-203306-383606-633421
2026-09-06T
20:33:06+0000
2.102 km
极远距离
1.933594E-6 低风险 0.41
CDM_260903-010606-356506-633421
2026-09-03T
01:06:32+0000
2.358 km
极远距离
1.045193E-6 低风险 0.35
CDM_260903-111806-356506-633421
2026-09-03T
11:18:31+0000
2.809 km
极远距离
7.982929E-7 极低风险 0.33